Weather History for CWEU - February, 2013

Change the Weather History Date:

Friday, February 1, 2013

  Actual Average Record
Temperature  
Mean Temperature -47 °F -  
Max Temperature -45 °F -31 °F 3 °F (2000)
Min Temperature -49 °F -44 °F -50 °F (2011)
Degree Days  
Heating Degree Days 112    
Moisture  
Dew Point -51 °F    
Average Humidity 78    
Maximum Humidity 82    
Minimum Humidity 63    
Precipitation  
Precipitation 0.00 in 0.00 in - ()
Sea Level Pressure  
Sea Level Pressure 29.86 in    
Wind  
Wind Speed 0 mph ()    
Max Wind Speed 2 mph    
Max Gust Speed -    
Visibility 15.0 miles    
Events Snow    
Averages and records for this station are not official NWS values.
T = Trace of Precipitation, MM = Missing Value Source: Averaged Metar Reports

Daily Weather History Graph

Daily Weather History Graph

Search for Another Location

Airport or City:

Trip Planner

Search our weather history database for the weather conditions in past years. The results will help you decide how hot, cold, wet, or windy it might be!

Date:

Astronomy

Dec. 31, 1969 Rise Set
Actual Time Sun does not set Sun does not set
Civil Twilight 11:24 AM CST 12:29 PM CST
Nautical Twilight 7:50 AM CST 4:06 PM CST
Astronomical Twilight 5:27 AM CST 6:30 PM CST
Moon 1:37 AM CST (2/1) 5:22 AM CST (2/1)
Length of Visible Light 1h 04m
Length of Day
0h 00m
Waning Gibbous, 70% of the Moon is Illuminated
Feb 1
Waning Gibbous
Feb 3
Last Quarter
Feb 10
New
Feb 17
First Quarter
Feb 25
Full

Hourly Weather History & Observations

Time (CST) Temp. Dew Point Humidity Pressure Visibility Wind Dir Wind Speed Gust Speed Precip Events Conditions
12:00 AM -47 °F -51 °F 64% 29.97 in 15 mi Calm Calm - - Snow Snow
12:00 AM -47.2 °F -50.8 °F 81% 29.97 in 15.0 mi Calm Calm - N/A   Clear
1:00 AM -47.2 °F -50.8 °F 81% 29.97 in 15.0 mi Calm Calm - N/A   Clear
2:00 AM -47.2 °F -50.8 °F 81% 29.97 in 15.0 mi Calm Calm - N/A   Clear
3:00 AM -47.2 °F -50.8 °F 81% 29.97 in 15.0 mi Calm Calm - N/A   Clear
4:00 AM -47.2 °F -50.8 °F 81% 29.96 in 15.0 mi Calm Calm - N/A   Clear
5:00 AM -47.2 °F -50.8 °F 81% 29.96 in 15.0 mi East 2.3 mph - N/A   Clear
6:00 AM -46 °F -50 °F 63% 29.94 in 15 mi Calm Calm - - Snow Snow
6:00 AM -47.2 °F -50.8 °F 81% 29.94 in 15.0 mi Calm Calm - N/A   Clear
7:00 AM -45.4 °F -50.8 °F 74% 29.93 in 15.0 mi Calm Calm - N/A   Clear
8:00 AM -47.2 °F -50.8 °F 81% 29.91 in 15.0 mi Calm Calm - N/A   Clear
9:00 AM -47.2 °F -50.8 °F 81% 29.90 in 15.0 mi Calm Calm - N/A   Clear
10:00 AM -47.2 °F -50.8 °F 81% 29.89 in 15.0 mi Calm Calm - N/A   Clear
11:00 AM -47.2 °F -50.8 °F 81% 29.87 in 15.0 mi Calm Calm - N/A   Clear
12:00 PM -48 °F -52 °F 65% 29.85 in 15 mi Calm Calm - - Snow Snow
12:00 PM -49.0 °F -52.6 °F 81% 29.85 in 15.0 mi Calm Calm - N/A   Clear
1:00 PM -47.2 °F -50.8 °F 81% 29.83 in 15.0 mi Calm Calm - N/A   Clear
2:00 PM -47.2 °F -50.8 °F 81% 29.82 in 15.0 mi Calm Calm - N/A   Clear
3:00 PM -47.2 °F -50.8 °F 81% 29.80 in 15.0 mi Calm Calm - N/A   Clear
4:00 PM -47.2 °F -50.8 °F 81% 29.77 in 15.0 mi Calm Calm - N/A   Clear
5:00 PM -47.2 °F -52.6 °F 73% 29.75 in 15.0 mi Calm Calm - N/A   Clear
6:00 PM -48 °F -51 °F 70% 29.73 in 15 mi Calm Calm - - Snow Snow
6:00 PM -47.2 °F -50.8 °F 81% 29.73 in 15.0 mi Calm Calm - N/A   Clear
7:00 PM -45.4 °F -50.8 °F 74% 29.70 in 15.0 mi Calm Calm - N/A   Clear
8:00 PM -45.4 °F -49.0 °F 82% 29.68 in 15.0 mi SSE 2.3 mph - N/A   Clear
9:00 PM -47.2 °F -50.8 °F 81% 29.65 in 15.0 mi Calm Calm - N/A   Clear